When you browse on this site, cookies collect data to enhance your experience and personalize the content and advertising you see.
Visit our Privacy Policy to learn more. By continuing to use the site, you agree to this use of cookies and data.
  • In Latvia
  • List of Countries
  • For 7 days
  • Water Temperature
  • Weather Map
  • Weather Widgets
  • user-avatar
    Login

    Hourly Weather Memphis

    Today, 18 August, Sunday

    Time Temperature Precipitation Wind Pressure Humidity
    00:00 +27°C° 0 mm 2 mps 753 mmHg 68%
    01:00 +26°C° 0 mm 2 mps 753 mmHg 70%
    02:00 +26°C° 0 mm 1 mps 753 mmHg 71%
    03:00 +25°C° 0 mm 1 mps 752 mmHg 73%
    04:00 +25°C° 0 mm 1 mps 753 mmHg 75%
    05:00 +25°C° 0 mm 1 mps 753 mmHg 77%
    06:00 +25°C° 0 mm 2 mps 753 mmHg 80%
    07:00 +27°C° 0 mm 2 mps 753 mmHg 77%
    08:00 +29°C° 0 mm 2 mps 753 mmHg 74%
    09:00 +31°C° 0 mm 2 mps 753 mmHg 71%
    10:00 +33°C° 0 mm 3 mps 754 mmHg 66%
    11:00 +35°C° 0 mm 3 mps 754 mmHg 61%
    12:00 +36°C° 0 mm 3 mps 754 mmHg 56%
    13:00 +36°C° 0 mm 3 mps 754 mmHg 56%
    14:00 +36°C° 0 mm 3 mps 753 mmHg 56%
    15:00 +36°C° 0 mm 3 mps 753 mmHg 56%
    16:00 +35°C° 0 mm 3 mps 752 mmHg 60%
    17:00 +34°C° 0 mm 3 mps 752 mmHg 64%
    18:00 +33°C° 0 mm 3 mps 752 mmHg 68%
    19:00 +31°C° 0 mm 2 mps 752 mmHg 72%
    20:00 +30°C° 0 mm 2 mps 752 mmHg 76%
    21:00 +29°C° 0 mm 2 mps 753 mmHg 80%
    22:00 +28°C° 0 mm 2 mps 753 mmHg 80%
    23:00 +28°C° 0 mm 2 mps 753 mmHg 81%

    Tomorrow, 19 August, Monday

    Time Temperature Precipitation Wind Pressure Humidity
    00:00 +28°C° 0 mm 2 mps 753 mmHg 81%
    01:00 +27°C° 0 mm 2 mps 753 mmHg 83%
    02:00 +27°C° 0 mm 2 mps 753 mmHg 84%
    03:00 +27°C° 0 mm 2 mps 753 mmHg 86%
    04:00 +27°C° 0 mm 2 mps 753 mmHg 87%
    05:00 +26°C° 0 mm 2 mps 754 mmHg 88%
    06:00 +26°C° 0 mm 2 mps 754 mmHg 88%
    07:00 +28°C° 0 mm 2 mps 754 mmHg 84%
    08:00 +29°C° 0 mm 2 mps 755 mmHg 81%
    09:00 +31°C° 0 mm 3 mps 755 mmHg 77%
    10:00 +33°C° 0.2 mm 3 mps 755 mmHg 72%
    11:00 +34°C° 0.2 mm 3 mps 755 mmHg 68%
    12:00 +36°C° 0.2 mm 3 mps 755 mmHg 64%
    13:00 +36°C° 0.3 mm 2 mps 754 mmHg 63%
    14:00 +36°C° 0.3 mm 2 mps 754 mmHg 63%
    15:00 +36°C° 0.3 mm 2 mps 753 mmHg 63%
    16:00 +35°C° 0 mm 2 mps 753 mmHg 66%
    17:00 +34°C° 0 mm 2 mps 753 mmHg 70%
    18:00 +32°C° 0 mm 2 mps 753 mmHg 73%
    19:00 +31°C° 0 mm 2 mps 754 mmHg 75%
    20:00 +30°C° 0 mm 1 mps 754 mmHg 76%
    21:00 +29°C° 0 mm 1 mps 754 mmHg 78%
    22:00 +29°C° 0 mm 1 mps 754 mmHg 78%
    23:00 +29°C° 0 mm 1 mps 754 mmHg 79%

    Day after tomorrow, 20 August, Tuesday

    Time Temperature Precipitation Wind Pressure Humidity
    00:00 +28°C° 0 mm 2 mps 754 mmHg 79%
    01:00 +28°C° 0 mm 1 mps 754 mmHg 79%
    02:00 +28°C° 0 mm 1 mps 754 mmHg 80%
    03:00 +27°C° 0 mm 1 mps 754 mmHg 81%
    04:00 +27°C° 0 mm 1 mps 754 mmHg 82%
    05:00 +27°C° 0 mm 1 mps 755 mmHg 83%
    06:00 +27°C° 0 mm 1 mps 755 mmHg 84%
    07:00 +28°C° 0 mm 1 mps 755 mmHg 80%
    08:00 +30°C° 0 mm 2 mps 756 mmHg 76%
    09:00 +32°C° 0 mm 2 mps 756 mmHg 72%
    10:00 +34°C° 0 mm 2 mps 756 mmHg 67%
    11:00 +35°C° 0 mm 2 mps 756 mmHg 63%
    12:00 +36°C° 0 mm 2 mps 755 mmHg 58%
    13:00 +36°C° 0.6 mm 2 mps 755 mmHg 59%
    14:00 +36°C° 0.6 mm 2 mps 755 mmHg 60%
    15:00 +36°C° 0.6 mm 3 mps 754 mmHg 61%
    16:00 +35°C° 0 mm 2 mps 754 mmHg 64%
    17:00 +34°C° 0 mm 2 mps 754 mmHg 67%
    18:00 +32°C° 0 mm 2 mps 754 mmHg 70%
    19:00 +31°C° 0 mm 2 mps 754 mmHg 72%
    20:00 +30°C° 0 mm 2 mps 754 mmHg 74%
    21:00 +30°C° 0 mm 2 mps 755 mmHg 75%
    22:00 +29°C° 0 mm 2 mps 755 mmHg 77%
    23:00 +29°C° 0 mm 2 mps 755 mmHg 78%

    21 August, Wednesday

    Time Temperature Precipitation Wind Pressure Humidity
    00:00 +28°C° 0 mm 2 mps 755 mmHg 79%
    01:00 +28°C° 0 mm 2 mps 754 mmHg 81%
    02:00 +28°C° 0 mm 2 mps 754 mmHg 83%
    03:00 +27°C° 0 mm 2 mps 754 mmHg 84%
    04:00 +27°C° 0 mm 2 mps 755 mmHg 85%
    05:00 +27°C° 0 mm 2 mps 755 mmHg 85%
    06:00 +27°C° 0 mm 2 mps 755 mmHg 86%
    07:00 +29°C° 0 mm 2 mps 755 mmHg 80%
    08:00 +30°C° 0 mm 2 mps 756 mmHg 75%
    09:00 +32°C° 0 mm 2 mps 756 mmHg 70%
    10:00 +34°C° 0 mm 2 mps 755 mmHg 67%
    11:00 +35°C° 0 mm 2 mps 755 mmHg 63%
    12:00 +37°C° 0 mm 2 mps 755 mmHg 59%
    13:00 +37°C° 0.6 mm 2 mps 754 mmHg 59%
    14:00 +37°C° 0.6 mm 2 mps 754 mmHg 58%
    15:00 +37°C° 0.6 mm 2 mps 753 mmHg 58%
    16:00 +36°C° 0.1 mm 2 mps 753 mmHg 62%
    17:00 +35°C° 0.1 mm 2 mps 753 mmHg 66%
    18:00 +34°C° 0.1 mm 2 mps 753 mmHg 70%
    19:00 +30°C° 1.9 mm 2 mps 753 mmHg 75%
    20:00 +27°C° 1.9 mm 3 mps 754 mmHg 81%
    21:00 +24°C° 1.9 mm 3 mps 754 mmHg 86%
    22:00 +24°C° 0 mm 3 mps 754 mmHg 85%
    23:00 +24°C° 0 mm 2 mps 754 mmHg 84%

    22 August, Thursday

    Time Temperature Precipitation Wind Pressure Humidity
    00:00 +24°C° 0 mm 2 mps 754 mmHg 83%
    01:00 +24°C° 0.4 mm 2 mps 754 mmHg 85%
    02:00 +24°C° 0.4 mm 2 mps 754 mmHg 86%
    03:00 +24°C° 0.4 mm 2 mps 754 mmHg 88%
    04:00 +24°C° 0 mm 1 mps 754 mmHg 87%
    05:00 +24°C° 0 mm 1 mps 754 mmHg 86%
    06:00 +24°C° 0 mm 1 mps 754 mmHg 85%
    07:00 +26°C° 0 mm 1 mps 754 mmHg 81%
    08:00 +27°C° 0 mm 1 mps 754 mmHg 77%
    09:00 +28°C° 0 mm 1 mps 755 mmHg 73%
    10:00 +29°C° 0 mm 1 mps 754 mmHg 72%
    11:00 +30°C° 0 mm 2 mps 754 mmHg 70%
    12:00 +31°C° 0 mm 2 mps 754 mmHg 68%
    13:00 +31°C° 0.3 mm 2 mps 754 mmHg 68%
    14:00 +31°C° 0.3 mm 2 mps 753 mmHg 68%
    15:00 +33°C° 0.3 mm 3 mps 753 mmHg 69%
    16:00 +31°C° 0.3 mm 2 mps 753 mmHg 73%
    17:00 +30°C° 0.3 mm 2 mps 753 mmHg 77%
    18:00 +29°C° 0.3 mm 2 mps 752 mmHg 81%
    19:00 +28°C° 0.2 mm 2 mps 753 mmHg 82%
    20:00 +27°C° 0.2 mm 2 mps 753 mmHg 84%
    21:00 +26°C° 0.2 mm 2 mps 754 mmHg 86%
    22:00 +26°C° 0 mm 2 mps 753 mmHg 87%
    23:00 +26°C° 0 mm 1 mps 753 mmHg 87%

    23 August, Friday

    Time Temperature Precipitation Wind Pressure Humidity
    00:00 +25°C° 0 mm 1 mps 753 mmHg 88%
    01:00 +25°C° 0 mm 1 mps 753 mmHg 89%
    02:00 +25°C° 0 mm 1 mps 753 mmHg 90%
    03:00 +25°C° 0 mm 1 mps 753 mmHg 91%
    04:00 +25°C° 0 mm 1 mps 754 mmHg 92%
    05:00 +25°C° 0 mm 1 mps 754 mmHg 92%
    06:00 +25°C° 0 mm 1 mps 754 mmHg 93%
    07:00 +26°C° 0 mm 1 mps 754 mmHg 88%
    08:00 +27°C° 0 mm 1 mps 755 mmHg 83%
    09:00 +29°C° 0 mm 2 mps 755 mmHg 77%
    10:00 +30°C° 0.1 mm 2 mps 755 mmHg 72%
    11:00 +31°C° 0.1 mm 2 mps 755 mmHg 67%
    12:00 +34°C° 0.1 mm 2 mps 754 mmHg 62%
    13:00 +32°C° 1.4 mm 2 mps 754 mmHg 65%
    14:00 +32°C° 1.4 mm 2 mps 754 mmHg 68%
    15:00 +32°C° 1.4 mm 2 mps 753 mmHg 70%
    16:00 +31°C° 0.5 mm 2 mps 753 mmHg 73%
    17:00 +30°C° 0.5 mm 2 mps 753 mmHg 76%
    18:00 +29°C° 0.5 mm 2 mps 753 mmHg 80%
    19:00 +28°C° 0.1 mm 2 mps 753 mmHg 81%
    20:00 +27°C° 0.1 mm 2 mps 754 mmHg 82%
    21:00 +27°C° 0.1 mm 2 mps 754 mmHg 84%
    22:00 +27°C° 0 mm 2 mps 754 mmHg 85%
    23:00 +26°C° 0 mm 2 mps 754 mmHg 87%
    Show more